This is the latest recevied weather packets stored in our database for station/object DM3DP. If no packets are shown the sender has not sent any weather packets the latest 10 day(s).
| Time | Temp. | Humidity | Pressure | Rain* | Wind** | Luminosity | Snow |
|---|---|---|---|---|---|---|---|
| 1777822796 | 17.78° C | 84% | 1010.2 hPa | 0.76 mm | - | 39 W/m² | - |
| 1777822466 | 18.33° C | 82% | 1010.2 hPa | 0.76 mm | - | 37 W/m² | - |
| 1777822136 | 17.78° C | 81% | 1010.2 hPa | 0.76 mm | - | 48 W/m² | - |
| 1777821807 | 17.78° C | 80% | 1010.2 hPa | 0.76 mm | - | 61 W/m² | - |
| 1777821476 | 17.78° C | 80% | 1010.2 hPa | 0.76 mm | - | 64 W/m² | - |
| 1777821146 | 17.78° C | 78% | 1010.2 hPa | 0.51 mm | - | 44 W/m² | - |
| 1777820816 | 18.33° C | 78% | 1010.2 hPa | 0.51 mm | - | 20 W/m² | - |
| 1777820487 | 18.89° C | 78% | 1010.2 hPa | 0.25 mm | - | 20 W/m² | - |
| 1777820156 | 18.89° C | 77% | 1010.1 hPa | 0.25 mm | - | 27 W/m² | - |
| 1777819826 | 19.44° C | 76% | 1009.9 hPa | 0.25 mm | - | 57 W/m² | - |
| 1777819496 | 19.44° C | 73% | 1009.9 hPa | 0.25 mm | - | 47 W/m² | - |
| 1777819167 | 19.44° C | 73% | 1009.9 hPa | 0 mm | - | 42 W/m² | - |
| 1777818836 | 19.44° C | 73% | 1009.9 hPa | 0 mm | - | 53 W/m² | - |
| 1777818506 | 20° C | 73% | 1009.9 hPa | 0 mm | - | 58 W/m² | - |
| 1777818176 | 20° C | 70% | 1009.9 hPa | 0 mm | - | 60 W/m² | - |
| 1777817847 | 20° C | 70% | 1009.9 hPa | 0 mm | - | 73 W/m² | - |
| 1777817516 | 20° C | 68% | 1010 hPa | 0.25 mm | - | 103 W/m² | - |
| 1777817187 | 20° C | 68% | 1010 hPa | 0.25 mm | - | 102 W/m² | - |
| 1777816856 | 20° C | 69% | 1010 hPa | 0.25 mm | - | 116 W/m² | - |
| 1777816527 | 20° C | 70% | 1010.1 hPa | 0.25 mm | - | 142 W/m² | - |
| 1777816196 | 20° C | 69% | 1010.3 hPa | 0.25 mm | - | 138 W/m² | - |
| 1777815867 | 20° C | 69% | 1010.4 hPa | 0.25 mm | - | 158 W/m² | - |
| 1777815536 | 19.44° C | 70% | 1010.4 hPa | 0.25 mm | - | 158 W/m² | - |
| 1777815206 | 19.44° C | 69% | 1010.4 hPa | 0.25 mm | - | 166 W/m² | - |
| 1777814877 | 19.44° C | 67% | 1010.4 hPa | 0.25 mm | - | 141 W/m² | - |
* Rain latest hour (hover to see other rain measurements)
** Current wind speed in m/s (hover to see current wind gust speed)